Change the Weather History Date:

Sunday, November 17, 2013

  Actual Average Record
Temperature  
Mean Temperature 48 °F -  
Max Temperature 57 °F 48 °F 63 °F (2006)
Min Temperature 39 °F 36 °F 27 °F (2001)
Degree Days  
Heating Degree Days 17    
Moisture  
Dew Point 46 °F    
Average Humidity 91    
Maximum Humidity 97    
Minimum Humidity 57    
Precipitation  
Precipitation 0.11 in - - ()
Sea Level Pressure  
Sea Level Pressure 30.21 in    
Wind  
Wind Speed 4 mph (SE)    
Max Wind Speed 13 mph    
Max Gust Speed 21 mph    
Visibility 4 miles    
Events Fog , Rain    
Averages and records for this station are not official NWS values.
T = Trace of Precipitation, MM = Missing Value Source: NWS Daily Summary

Daily Weather History Graph

Daily Weather History Graph

Search for Another Location

Airport or City:

Trip Planner

Search our weather history database for the weather conditions in past years. The results will help you decide how hot, cold, wet, or windy it might be!

Date:

Astronomy

Nov. 17, 2013 Rise Set
Actual Time 6:31 AM EST 4:17 PM EST
Civil Twilight 6:01 AM EST 4:47 PM EST
Nautical Twilight 5:27 AM EST 5:21 PM EST
Astronomical Twilight 4:55 AM EST 5:54 PM EST
Moon 4:32 PM EST (11/17) 6:22 AM EST (11/17)
Length of Visible Light 10h 46m
Length of Day
9h 46m
Full, 100% of the Moon is Illuminated
Nov 17
Full
Nov 25
Last Quarter
Dec 2
New
Dec 9
First Quarter
Dec 17
Full

Hourly Weather History & Observations

Time (EST) Temp. Windchill Dew Point Humidity Pressure Visibility Wind Dir Wind Speed Gust Speed Precip Events Conditions
12:52 AM 39.9 °F 37.8 °F 39.0 °F 97% 30.34 in 7.0 mi NW 3.5 mph - N/A   Clear
1:52 AM 42.1 °F - 39.9 °F 92% 30.35 in 4.0 mi Calm Calm - N/A   Clear
2:05 AM 41.0 °F - 39.9 °F 96% 30.33 in 1.8 mi Calm Calm - N/A   Clear
2:17 AM 41.0 °F - 39.0 °F 93% 30.33 in 0.5 mi Calm Calm - N/A Fog Fog
2:24 AM 39.9 °F - 37.9 °F 93% 30.33 in 0.2 mi Calm Calm - N/A Fog Fog
2:32 AM 39.9 °F - 37.9 °F 93% 30.32 in 0.5 mi Calm Calm - N/A Fog Fog
2:36 AM 41.0 °F - 37.9 °F 89% 30.32 in 1.2 mi Calm Calm - N/A   Partly Cloudy
2:52 AM 42.1 °F - 39.9 °F 92% 30.33 in 1.2 mi Calm Calm - N/A   Partly Cloudy
3:00 AM 41.0 °F - 39.9 °F 96% 30.32 in 0.8 mi Calm Calm - N/A   Mist
3:09 AM 41.0 °F - 39.0 °F 93% 30.32 in 0.8 mi Calm Calm - N/A   Scattered Clouds
3:52 AM 41.0 °F - 39.0 °F 93% 30.32 in 0.2 mi Calm Calm - N/A Fog Fog
4:07 AM 39.9 °F - 39.0 °F 97% 30.31 in 0.8 mi Calm Calm - N/A   Mist
4:37 AM 44.1 °F - 42.1 °F 93% 30.31 in 1.2 mi Calm Calm - N/A   Partly Cloudy
4:48 AM 42.8 °F - 41.0 °F 93% 30.32 in 0.8 mi Calm Calm - N/A   Mist
4:52 AM 39.9 °F - 39.0 °F 97% 30.32 in 0.5 mi Calm Calm - N/A Fog Fog
5:01 AM 41.0 °F - 39.0 °F 93% 30.32 in 0.2 mi Calm Calm - N/A Fog Fog
5:24 AM 41.0 °F - 39.9 °F 96% 30.32 in 1.0 mi Calm Calm - N/A   Overcast
5:52 AM 44.1 °F - 42.1 °F 93% 30.33 in 4.0 mi Calm Calm - N/A   Overcast
6:18 AM 45.0 °F - 44.1 °F 97% 30.34 in 1.8 mi Calm Calm - N/A   Overcast
6:48 AM 46.4 °F 45.2 °F 44.6 °F 93% 30.34 in 3.0 mi SE 3.5 mph - N/A   Overcast
6:52 AM 46.9 °F - 45.0 °F 93% 30.35 in 4.0 mi SE 3.5 mph - N/A   Overcast
7:52 AM 50.0 °F - 48.9 °F 96% 30.33 in 10.0 mi SE 4.6 mph - N/A   Overcast
8:52 AM 51.1 °F - 48.9 °F 92% 30.33 in 10.0 mi Variable 3.5 mph - N/A   Overcast
9:52 AM 53.1 °F - 48.9 °F 86% 30.31 in 10.0 mi ESE 6.9 mph - N/A   Clear
10:52 AM 55.9 °F - 46.9 °F 72% 30.30 in 10.0 mi SE 9.2 mph - N/A   Clear
11:52 AM 57.0 °F - 42.1 °F 57% 30.26 in 10.0 mi SE 9.2 mph - N/A   Mostly Cloudy
12:52 PM 55.9 °F - 43.0 °F 62% 30.24 in 10.0 mi SE 10.4 mph 17.3 mph N/A   Mostly Cloudy
1:52 PM 55.0 °F - 46.0 °F 72% 30.22 in 10.0 mi SE 6.9 mph 17.3 mph N/A   Overcast
2:15 PM 53.1 °F - 46.9 °F 80% 30.20 in 3.0 mi SE 8.1 mph - 0.01 in Rain Light Rain
2:23 PM 53.1 °F - 48.0 °F 83% 30.20 in 2.5 mi SE 6.9 mph - 0.02 in Rain Light Rain
2:34 PM 52.0 °F - 48.9 °F 89% 30.20 in 1.8 mi SE 6.9 mph - 0.02 in Rain Light Rain
2:50 PM 51.8 °F - 48.2 °F 88% 30.19 in 2.0 mi Variable 6.9 mph - 0.03 in Rain Light Rain
2:51 PM 52.0 °F - 48.9 °F 89% 30.20 in 2.0 mi ESE 8.1 mph - 0.03 in Rain Light Rain
2:53 PM 52.0 °F - 48.9 °F 89% 30.19 in 3.0 mi ESE 5.8 mph - 0.00 in Rain Light Rain
3:10 PM 52.0 °F - 48.9 °F 89% 30.19 in 2.0 mi ESE 6.9 mph - 0.02 in Rain Light Rain
3:18 PM 52.0 °F - 48.9 °F 89% 30.18 in 5.0 mi ESE 6.9 mph - 0.02 in Rain Light Rain
3:52 PM 53.1 °F - 48.9 °F 86% 30.19 in 6.0 mi SE 8.1 mph - 0.02 in Rain Light Rain
4:03 PM 52.0 °F - 50.0 °F 93% 30.17 in 4.0 mi SE 8.1 mph - 0.00 in Rain Light Rain
4:14 PM 52.0 °F - 50.0 °F 93% 30.17 in 2.0 mi ESE 8.1 mph - 0.01 in Rain Light Rain
4:23 PM 52.0 °F - 50.0 °F 93% 30.16 in 5.0 mi SE 9.2 mph - 0.01 in Rain Light Rain
4:41 PM 53.1 °F - 51.1 °F 93% 30.16 in 3.0 mi ESE 9.2 mph - 0.02 in Rain Light Rain
4:52 PM 53.1 °F - 51.1 °F 93% 30.16 in 5.0 mi ESE 10.4 mph - 0.02 in Rain Light Rain
4:59 PM 53.1 °F - 51.1 °F 93% 30.15 in 8.0 mi ESE 10.4 mph - 0.00 in   Overcast
5:52 PM 53.1 °F - 52.0 °F 96% 30.13 in 8.0 mi SE 10.4 mph - 0.00 in   Overcast
6:02 PM 53.1 °F - 52.0 °F 96% 30.12 in 8.0 mi SE 6.9 mph 18.4 mph N/A   Overcast
6:35 PM 54.0 °F - 53.1 °F 97% 30.10 in 7.0 mi SE 8.1 mph 17.3 mph N/A   Overcast
6:45 PM 54.0 °F - 53.1 °F 97% 30.10 in 7.0 mi SSE 9.2 mph 18.4 mph 0.00 in Rain Light Rain
6:52 PM 55.0 °F - 54.0 °F 96% 30.10 in 5.0 mi SE 8.1 mph - 0.01 in Rain Light Rain
7:52 PM 55.0 °F - 53.1 °F 93% 30.06 in 4.0 mi SSE 9.2 mph 19.6 mph 0.01 in   Overcast
8:52 PM 55.0 °F - 54.0 °F 96% 30.05 in 4.0 mi South 9.2 mph - 0.01 in Rain Light Rain
9:52 PM 54.0 °F - 53.1 °F 97% 30.02 in 3.0 mi South 9.2 mph 17.3 mph 0.00 in   Overcast
10:42 PM 55.0 °F - 54.0 °F 96% 29.98 in 1.8 mi South 10.4 mph 19.6 mph 0.01 in   Overcast
10:52 PM 55.0 °F - 54.0 °F 96% 29.97 in 1.5 mi South 10.4 mph 19.6 mph 0.01 in   Overcast
11:11 PM 55.0 °F - 54.0 °F 96% 29.95 in 2.0 mi South 12.7 mph 20.7 mph 0.00 in Rain Light Rain
11:39 PM 55.0 °F - 54.0 °F 96% 29.94 in 1.8 mi South 9.2 mph 17.3 mph 0.00 in Rain Light Rain
11:52 PM 55.0 °F - 54.0 °F 96% 29.93 in 1.5 mi South 11.5 mph 20.7 mph 0.00 in Rain Light Rain